Temp_Advection
nan nan nan nan nan nan nan nan nan nan nan nan nan nan nan nan nan nan nan nan nan nan
nan 0 -0 -0 -0 -0 -0 -0 -0 -0 -0 -0 -0 -0 -0 0 0 0 0 -0 -0 nan
nan 0 0 -0 -0 -0 -0 -0 -0 -0 -0 -0 -0 -0 -0 -0 0 0 0 0 -0 nan
nan 0 0 0 0 -0 -0 -0 -0 -0 -0 -0 -0 -0 -0 -0 -0 -0 0 0 0 nan
nan 0 0 0 -0 -0 -0 -0 -0 -0 -0 -0 -1 -0 -1 -0 -0 -0 0 0 0 nan
nan 0 0 0 -0 -0 -0 -0 -0 -0 -0 -0 -1 -1 -1 -1 -1 -0 -0 -0 -0 nan
nan 0 0 0 -0 -0 -0 -0 0 -0 -0 -0 -0 -1 -1 -1 -1 -1 -1 -0 0 nan
nan -0 0 0 -0 0 0 -0 -0 -0 -0 0 -0 -0 -1 -1 -1 -1 -1 -0 -0 nan
nan 0 0 -0 -0 0 0 -0 -0 -0 -0 -0 0 0 -0 -0 -1 -1 -1 -1 -0 nan
nan -0 -0 -0 -0 -0 -0 -0 -1 -0 -0 -1 -0 0 0 -0 -1 -1 -1 -1 -1 nan
nan -0 -0 -0 -0 -0 -0 -1 -1 -1 -0 -1 -0 0 0 -0 -1 -1 -1 -1 -0 nan
nan -0 -0 -0 -0 -0 -1 -1 -1 -1 -1 -1 -1 0 0 -0 -1 -2 -1 -1 -0 nan
nan -0 -1 -1 -1 -1 -1 -1 -1 -1 -1 -1 -2 -0 0 -0 -2 -2 -2 -1 -1 nan
nan nan nan nan nan nan nan nan nan nan nan nan nan nan nan nan nan nan nan nan nan nan
Wind_Speed
7 6 6 6 8 10 12 14 16 18 20 22 23 25 25 24 23 24 24 24 24 24
8 6 6 6 7 8 11 12 14 17 18 20 22 24 26 26 25 25 25 25 24 23
10 8 6 6 7 9 10 12 14 16 18 20 21 23 25 26 26 26 25 26 26 25
12 10 9 8 9 10 11 13 15 17 19 20 22 24 25 26 27 28 28 26 27 27
14 13 12 12 13 13 13 14 16 18 19 21 22 24 26 28 28 29 30 30 30 31
17 17 16 16 16 16 17 17 18 20 21 23 24 25 26 29 30 31 31 31 31 32
20 21 20 20 20 20 20 21 22 23 24 26 27 28 28 30 32 33 33 33 32 32
23 23 24 23 23 24 24 25 27 28 29 30 31 31 31 32 34 35 36 35 35 35
25 25 26 26 27 28 28 29 31 32 34 36 36 34 33 32 35 36 38 39 38 38
25 26 27 28 30 31 32 34 35 37 38 39 40 38 36 35 36 38 40 40 40 40
26 28 29 31 32 33 35 37 38 40 41 42 42 41 40 38 38 40 41 41 40 39
26 28 30 32 33 34 37 39 40 42 43 44 46 44 43 39 40 42 43 42 40 39
27 29 32 33 35 38 39 41 42 44 44 45 47 45 43 38 37 41 42 42 42 40
29 31 33 35 35 37 38 39 41 43 44 44 43 44 40 36 32 35 39 40 44 45
Wind_Direction
286 300 320 340 350 351 355 356 354 354 354 352 350 347 344 340 336 334 331 326 325 322
274 284 304 323 335 340 343 346 348 348 348 348 345 343 341 338 333 329 328 325 322 319
264 269 279 296 310 320 327 333 336 340 342 342 340 337 335 334 334 327 320 320 320 318
254 256 267 281 293 301 311 319 326 331 334 333 333 331 330 330 328 326 321 314 311 309
253 256 264 272 279 289 298 308 315 320 322 323 324 324 325 324 323 321 320 317 307 303
254 259 262 268 275 283 291 299 304 308 311 314 315 318 318 318 318 316 314 313 310 303
255 259 263 268 274 280 286 292 295 299 303 306 309 312 314 313 313 312 310 310 308 305
256 261 265 270 274 279 284 288 292 296 298 300 302 306 309 310 310 308 307 306 306 305
262 265 269 274 276 280 283 286 289 292 293 295 297 300 301 302 301 302 302 304 305 304
267 269 273 276 278 282 284 286 287 288 290 291 292 295 296 297 297 297 298 300 301 301
273 275 277 279 281 283 285 286 287 288 288 289 290 292 294 296 294 293 294 295 296 299
278 279 281 283 285 287 288 289 289 289 289 290 289 291 292 295 293 292 292 293 294 299
284 286 288 290 292 293 293 292 292 291 291 290 290 291 293 293 291 290 292 293 295 297
291 293 294 295 296 296 296 295 294 293 292 292 292 292 293 291 288 288 294 298 297 295
Height
1547 1545 1544 1543 1542 1541 1540 1539 1538 1536 1534 1531 1528 1525 1522 1521 1519 1515 1512 1511 1510 1505
1544 1543 1542 1542 1541 1541 1540 1538 1537 1534 1532 1528 1526 1523 1521 1519 1516 1511 1509 1507 1506 1501
1540 1540 1540 1540 1539 1539 1538 1536 1534 1531 1528 1525 1524 1521 1519 1516 1512 1508 1506 1503 1499 1497
1537 1537 1536 1536 1536 1535 1534 1531 1529 1526 1524 1523 1521 1518 1515 1512 1508 1504 1501 1498 1494 1493
1533 1533 1533 1533 1532 1531 1529 1527 1524 1523 1521 1520 1518 1515 1511 1508 1504 1499 1495 1491 1489 1487
1528 1528 1529 1528 1527 1526 1524 1521 1520 1519 1517 1516 1514 1510 1506 1502 1498 1494 1490 1487 1483 1480
1523 1522 1522 1522 1522 1520 1518 1516 1515 1514 1512 1510 1508 1504 1500 1496 1492 1488 1485 1481 1477 1474
1517 1516 1516 1516 1515 1514 1512 1511 1509 1507 1506 1504 1501 1498 1493 1489 1484 1481 1477 1474 1470 1466
1511 1510 1510 1509 1508 1507 1506 1504 1501 1500 1498 1496 1493 1491 1488 1484 1479 1474 1468 1463 1459 1455
1504 1504 1503 1502 1501 1500 1498 1495 1493 1491 1489 1486 1484 1482 1479 1475 1469 1464 1458 1453 1449 1445
1497 1497 1495 1494 1492 1490 1488 1485 1482 1480 1478 1475 1473 1471 1468 1464 1459 1454 1449 1445 1440 1436
1490 1489 1487 1485 1483 1481 1477 1475 1472 1470 1467 1464 1461 1459 1456 1453 1448 1442 1437 1433 1430 1427
1484 1481 1479 1477 1474 1471 1468 1464 1461 1458 1456 1453 1448 1447 1444 1442 1437 1430 1425 1421 1418 1416
1477 1474 1471 1467 1465 1462 1458 1454 1450 1447 1444 1440 1438 1434 1432 1430 1427 1421 1415 1410 1406 1404